TimeEDT,TemperatureF,Dew PointF,Humidity,Sea Level PressureIn,VisibilityMPH,Wind Direction,Wind SpeedMPH,Gust SpeedMPH,PrecipitationIn,Events,Conditions,WindDirDegrees,DateUTC
12:15 AM,75.0,74.5,98,30.04,5.0,SE,5.8,-,N/A,,Overcast,130,2014-05-15 04:15:00
12:35 AM,75.2,74.7,98,30.04,7.0,SE,6.9,18.4,N/A,,Overcast,140,2014-05-15 04:35:00
12:55 AM,75.0,75.0,100,30.03,5.0,SE,9.2,16.1,N/A,,Overcast,140,2014-05-15 04:55:00
1:15 AM,74.7,74.7,100,30.03,4.0,SE,12.7,17.3,N/A,,Overcast,140,2014-05-15 05:15:00
1:35 AM,74.7,74.7,100,30.03,7.0,SE,8.1,17.3,N/A,,Overcast,140,2014-05-15 05:35:00
1:55 AM,74.8,74.8,100,30.02,7.0,SE,9.2,16.1,N/A,,Overcast,140,2014-05-15 05:55:00
2:15 AM,74.8,74.8,100,30.01,7.0,SSE,4.6,-,N/A,,Overcast,160,2014-05-15 06:15:00
2:35 AM,70.9,70.9,100,30.03,1.5,South,4.6,16.1,N/A,,Overcast,190,2014-05-15 06:35:00
2:55 AM,70.7,70.7,100,30.02,7.0,South,5.8,-,N/A,,Overcast,190,2014-05-15 06:55:00
3:15 AM,70.2,70.2,100,30.01,7.0,SSW,3.5,-,N/A,,Overcast,200,2014-05-15 07:15:00
3:35 AM,70.3,70.3,100,30.01,5.0,Calm,Calm,-,N/A,,Overcast,0,2014-05-15 07:35:00
3:55 AM,70.3,70.3,100,30.00,7.0,Calm,Calm,-,N/A,,Overcast,0,2014-05-15 07:55:00
4:15 AM,70.3,70.3,100,30.00,5.0,Calm,Calm,-,N/A,,Overcast,0,2014-05-15 08:15:00
4:35 AM,70.5,70.5,100,30.01,10.0,Calm,Calm,-,N/A,,Overcast,0,2014-05-15 08:35:00
4:55 AM,70.5,70.5,100,30.01,7.0,South,4.6,-,N/A,,Overcast,170,2014-05-15 08:55:00
5:15 AM,70.3,70.3,100,29.99,7.0,Calm,Calm,-,N/A,,Overcast,0,2014-05-15 09:15:00
5:35 AM,70.2,70.2,100,29.98,7.0,Calm,Calm,-,N/A,,Overcast,0,2014-05-15 09:35:00
5:55 AM,70.0,70.0,100,29.99,7.0,Calm,Calm,-,N/A,,Overcast,0,2014-05-15 09:55:00
6:15 AM,70.0,70.0,100,30.00,7.0,Calm,Calm,-,N/A,,Overcast,0,2014-05-15 10:15:00
6:35 AM,69.8,69.8,100,29.98,5.0,Calm,Calm,-,N/A,,Overcast,0,2014-05-15 10:35:00
6:55 AM,69.3,69.3,100,30.01,1.0,SSE,3.5,-,N/A,,Overcast,150,2014-05-15 10:55:00
7:15 AM,69.4,69.4,100,30.01,7.0,Calm,Calm,-,N/A,,Overcast,0,2014-05-15 11:15:00
7:35 AM,69.6,69.6,100,30.01,5.0,SE,3.5,-,N/A,,Overcast,140,2014-05-15 11:35:00
7:55 AM,69.8,69.8,100,30.01,10.0,ESE,3.5,-,N/A,,Overcast,120,2014-05-15 11:55:00
8:15 AM,70.0,70.0,100,30.00,10.0,Calm,Calm,-,N/A,,Mostly Cloudy,0,2014-05-15 12:15:00
8:35 AM,70.0,70.0,100,30.00,10.0,Calm,Calm,-,N/A,,Mostly Cloudy,0,2014-05-15 12:35:00
8:55 AM,70.3,70.3,100,30.00,10.0,Calm,Calm,-,N/A,,Mostly Cloudy,0,2014-05-15 12:55:00
9:15 AM,70.7,70.7,100,30.01,10.0,SSE,3.5,-,N/A,,Overcast,160,2014-05-15 13:15:00
9:35 AM,71.1,71.1,100,30.00,10.0,Calm,Calm,-,N/A,,Overcast,0,2014-05-15 13:35:00
9:55 AM,71.2,71.2,100,30.00,5.0,Calm,Calm,-,N/A,,Overcast,0,2014-05-15 13:55:00
10:15 AM,72.3,72.3,100,30.00,10.0,SSE,3.5,-,N/A,,Overcast,160,2014-05-15 14:15:00
10:35 AM,72.7,72.1,98,30.00,10.0,South,3.5,-,N/A,,Overcast,170,2014-05-15 14:35:00
10:55 AM,72.9,72.7,99,30.00,10.0,Calm,Calm,-,N/A,,Overcast,0,2014-05-15 14:55:00
11:15 AM,72.7,72.7,100,29.99,10.0,Calm,Calm,-,N/A,,Overcast,0,2014-05-15 15:15:00
11:35 AM,73.0,72.9,99,29.99,10.0,South,3.5,-,N/A,,Overcast,170,2014-05-15 15:35:00
11:55 AM,73.4,73.0,99,29.99,10.0,Calm,Calm,-,N/A,,Overcast,0,2014-05-15 15:55:00
12:15 PM,73.4,73.4,100,29.99,7.0,Calm,Calm,-,N/A,,Overcast,0,2014-05-15 16:15:00
12:35 PM,73.4,73.4,100,29.98,7.0,Calm,Calm,-,N/A,,Overcast,0,2014-05-15 16:35:00
12:55 PM,73.8,72.9,97,29.98,10.0,WSW,3.5,-,N/A,,Overcast,250,2014-05-15 16:55:00
1:35 PM,73.4,73.4,100,29.97,7.0,Calm,Calm,-,N/A,,Overcast,0,2014-05-15 17:35:00
1:55 PM,73.4,73.2,99,29.96,10.0,Calm,Calm,-,N/A,,Mostly Cloudy,0,2014-05-15 17:55:00
2:15 PM,72.0,72.0,100,29.96,7.0,West,8.1,-,N/A,,Mostly Cloudy,280,2014-05-15 18:15:00
3:15 PM,72.7,72.0,98,29.95,10.0,West,8.1,-,N/A,,Overcast,270,2014-05-15 19:15:00
3:55 PM,73.2,71.6,95,29.94,10.0,WSW,4.6,-,N/A,,Overcast,250,2014-05-15 19:55:00
4:15 PM,70.5,69.6,97,29.94,7.0,West,12.7,19.6,N/A,,Overcast,280,2014-05-15 20:15:00
4:35 PM,70.0,68.5,95,29.94,10.0,West,11.5,18.4,N/A,,Overcast,280,2014-05-15 20:35:00
4:55 PM,70.0,68.4,95,29.95,10.0,West,11.5,-,N/A,,Overcast,280,2014-05-15 20:55:00
5:15 PM,69.6,68.0,95,29.95,10.0,West,11.5,-,N/A,,Overcast,280,2014-05-15 21:15:00
5:35 PM,69.6,67.1,92,29.96,10.0,West,8.1,-,N/A,,Overcast,280,2014-05-15 21:35:00
5:55 PM,69.3,66.6,91,29.95,10.0,West,9.2,19.6,N/A,,Overcast,270,2014-05-15 21:55:00
6:15 PM,68.9,65.5,89,29.95,10.0,West,10.4,17.3,N/A,,Overcast,270,2014-05-15 22:15:00
6:35 PM,67.8,63.5,86,29.96,10.0,West,6.9,17.3,N/A,,Mostly Cloudy,260,2014-05-15 22:35:00
6:55 PM,67.3,63.3,87,29.96,10.0,West,8.1,-,N/A,,Mostly Cloudy,270,2014-05-15 22:55:00
7:15 PM,67.1,61.7,83,29.96,10.0,West,9.2,18.4,N/A,,Scattered Clouds,280,2014-05-15 23:15:00
7:35 PM,66.7,61.9,84,29.97,10.0,West,6.9,-,N/A,,Clear,270,2014-05-15 23:35:00
7:55 PM,65.8,61.3,85,29.97,10.0,West,5.8,-,N/A,,Clear,270,2014-05-15 23:55:00
8:15 PM,64.4,61.5,90,29.98,10.0,WSW,4.6,-,N/A,,Clear,250,2014-05-16 00:15:00
8:35 PM,63.1,61.0,93,29.98,10.0,WSW,3.5,-,N/A,,Clear,250,2014-05-16 00:35:00
8:55 PM,62.2,60.8,95,29.98,10.0,West,4.6,-,N/A,,Clear,260,2014-05-16 00:55:00
9:15 PM,62.4,59.0,89,29.99,10.0,West,5.8,-,N/A,,Clear,270,2014-05-16 01:15:00
9:35 PM,61.7,57.4,86,29.99,10.0,West,8.1,-,N/A,,Clear,270,2014-05-16 01:35:00
9:55 PM,61.5,56.3,83,30.00,10.0,West,8.1,-,N/A,,Clear,260,2014-05-16 01:55:00
10:15 PM,60.8,55.6,83,30.01,10.0,West,5.8,-,N/A,,Clear,270,2014-05-16 02:15:00
10:35 PM,60.1,55.0,83,30.01,10.0,West,6.9,-,N/A,,Clear,260,2014-05-16 02:35:00
10:55 PM,59.4,54.7,84,30.03,10.0,West,5.8,-,N/A,,Clear,260,2014-05-16 02:55:00
11:15 PM,59.0,54.1,84,30.03,10.0,West,6.9,-,N/A,,Clear,270,2014-05-16 03:15:00
11:35 PM,58.3,53.8,85,30.03,10.0,West,6.9,-,N/A,,Clear,260,2014-05-16 03:35:00
11:55 PM,57.6,53.2,85,30.03,10.0,West,5.8,-,N/A,,Clear,280,2014-05-16 03:55:00